EST,Max TemperatureF,Mean TemperatureF,Min TemperatureF,Max Dew PointF,MeanDew PointF,Min DewpointF,Max Humidity, Mean Humidity, Min Humidity, Max Sea Level PressureIn, Mean Sea Level PressureIn, Min Sea Level PressureIn, Max VisibilityMiles, Mean VisibilityMiles, Min VisibilityMiles, Max Wind SpeedMPH, Mean Wind SpeedMPH, Max Gust SpeedMPH,PrecipitationIn, CloudCover, Events, WindDirDegrees
2012-11-1,68,52,39,24,19,14,49,30,13,29.95,29.88,29.83,10,10,10,15,8,18,0.00,0,,265
2012-11-2,77,61,45,39,30,18,44,33,19,29.98,29.92,29.83,10,10,10,20,7,29,0.00,1,,271
2012-11-3,78,62,45,51,41,35,83,51,24,30.11,30.02,29.98,10,10,10,6,2,,0.00,0,,276
2012-11-4,75,64,55,56,49,42,77,61,41,29.99,29.95,29.90,10,10,10,15,5,20,0.01,1,,261
2012-11-5,62,54,46,43,38,34,69,55,35,30.08,30.03,29.98,10,10,10,7,2,,0.00,1,,41
2012-11-6,52,48,45,40,35,30,80,63,43,30.08,30.01,29.96,10,10,9,16,7,22,0.12,6,Rain,56
2012-11-7,48,44,39,43,39,34,93,82,65,30.01,29.95,29.89,10,4,0,4,0,,0.16,6,Fog-Rain,298
2012-11-8,66,52,39,39,34,26,93,60,22,30.16,30.09,30.01,10,8,0,5,2,,0.00,0,Fog,298
2012-11-9,68,52,37,42,35,29,89,61,23,30.30,30.23,30.17,10,8,1,7,1,,0.00,0,,320
2012-11-10,73,55,37,45,38,29,93,68,19,30.37,30.32,30.26,10,7,0,7,1,,0.00,1,Fog,267
2012-11-11,70,56,42,51,45,37,83,64,46,30.47,30.39,30.36,10,10,9,6,1,,0.00,4,,40
2012-11-12,69,63,57,61,57,52,88,80,64,30.37,30.27,30.18,10,8,2,10,1,,0.19,7,Rain,290
2012-11-13,64,55,46,54,41,25,90,63,23,30.36,30.26,30.17,10,10,9,9,5,,0.01,5,Rain,62
2012-11-14,53,47,41,30,29,27,65,50,38,30.46,30.37,30.32,10,10,10,15,7,18,0.00,3,,54
2012-11-15,55,48,41,41,36,31,80,68,49,30.34,30.30,30.23,10,10,4,8,4,17,0.26,6,Rain,62
2012-11-16,61,47,33,38,33,29,93,70,30,30.37,30.31,30.26,10,6,0,6,1,,0.00,1,Fog,27
2012-11-17,61,52,43,33,28,22,65,43,22,30.46,30.41,30.36,10,10,10,14,8,23,0.00,0,,59
2012-11-18,62,56,50,41,35,23,63,49,33,30.43,30.39,30.34,10,10,10,14,10,25,0.00,6,,44
2012-11-19,64,57,50,48,43,37,77,62,52,30.34,30.28,30.19,10,10,10,8,3,,0.00,6,,33
2012-11-20,64,57,50,48,45,43,86,67,47,30.21,30.13,30.06,10,10,10,7,2,,0.00,3,,102
2012-11-21,69,56,44,47,43,39,93,74,35,30.17,30.13,30.09,10,6,0,6,2,,0.00,1,Fog,11
2012-11-22,66,55,44,47,38,30,93,62,28,30.28,30.21,30.17,10,8,0,6,2,,0.00,0,Fog,25
2012-11-23,72,54,37,45,38,25,93,65,33,30.18,30.08,29.96,10,8,1,20,3,30,0.00,1,,273
2012-11-24,57,48,39,28,20,10,60,36,19,30.11,30.05,30.01,10,10,10,12,7,17,0.00,0,,272
2012-11-25,57,44,32,25,16,10,72,35,18,30.20,30.12,30.06,10,10,10,8,2,,0.00,0,,222
2012-11-26,71,54,37,26,20,12,55,28,16,30.21,30.15,30.10,10,10,10,9,3,,0.00,1,,230
2012-11-27,60,56,51,50,41,23,86,63,28,30.22,30.15,30.10,10,8,3,5,2,,0.00,7,,235
2012-11-28,57,50,44,43,40,37,82,68,46,30.38,30.32,30.21,10,10,10,7,1,,0.00,3,,37
2012-11-29,60,48,35,41,35,30,93,69,42,30.47,30.40,30.35,10,9,2,7,1,,0.00,0,,279
2012-11-30,63,48,33,41,36,30,93,78,45,30.41,30.37,30.29,10,4,0,12,1,,0.00,2,Fog,264